Ayr Dpi Research Station, Queensland

12:39 AM AEST on July 25, 2016 (GMT +1000)
AYR Live Weather | | Change Station

Elev 39 ft 19.58 °S, 147.42 °E | Updated 3 seconds ago

Rain
Rain
66.4 °F
Feels Like 66.4 °F
N
0.0
Wind Variable Wind from North
Gusts 0.0 mph

Today
High -- | Low -- °F
--% Chance of Precip.
Yesterday
High -- | Low -- °F
Precip. -- in
Pressure 29.98 in
Visibility 6.2 miles
Clouds
Dew Point 65 °F
Humidity 95%
Rainfall 0.00 in
Snow Depth Not available.
6:42 AM 5:51 PM
Waning Gibbous, 76% visible
METAR YBTL 241400Z AUTO 00000KT 9999 // NCD 20/19 Q1015
Pressure 29.98 in
Visibility 6.2 miles
Clouds
Dew Point 65 °F
Humidity 95%
Rainfall 0.00 in
Snow Depth Not available.
6:42 AM 5:51 PM
Waning Gibbous, 76% visible
METAR YBTL 241400Z AUTO 00000KT 9999 // NCD 20/19 Q1015

10-Day Weather Forecast

Almanac

Astronomy

Jul. 25, 2016 Rise Set
Actual Time
Civil Twilight
Nautical Twilight
Astronomical Twilight
Moon
Length of Visible Light
Length of Day
Tomorrow will be .
, % of the Moon is Illuminated

Today's Extremes

Country Highs Country Lows

Community

WunderPhotos

Upload Photos

1,927,066 photos uploaded!

WunderBlog® & News

Nearby

Air Quality

  Air Quality AQ Index Pollutant
Not available.

Snow Depth

Station Depth Elevation

Earthquake Activity

City Distance Mag. Time & Date
Minimum magnitude displayed is 2.5.

Coastal Water Temperatures

Place Temperature

Stations

Nearby Weather Stations

Station Location Temp. Windchill Dew Point Humidity Wind Precip. Elev Updated Type